Temperature
3 3 4 4 3 3 3 3 3 3 4 4 4 3 3 3 3 3 3 3 3 3 3 3 3 3 3 3 3 3 3 3 3 3 3 4 4 4 4 4 4 4 4
3 3 3 3 3 3 3 3 3 3 3 3 3 3 3 3 3 3 3 3 3 3 3 3 3 3 3 3 3 3 3 3 2 2 3 3 3 3 3 3 3 3 3
3 3 3 2 3 3 3 2 3 3 2 2 2 2 2 2 2 2 2 2 2 2 2 2 2 2 2 2 2 2 2 2 2 2 2 2 2 2 3 3 3 3 3
2 2 2 2 2 2 2 2 2 2 2 2 2 2 2 2 2 2 2 2 2 2 2 2 2 2 2 2 2 2 2 1 1 1 1 1 2 2 2 2 2 2 2
1 1 2 2 2 2 2 2 2 2 1 1 1 1 1 1 1 1 1 1 1 1 1 1 1 1 1 1 1 1 1 1 1 1 1 1 1 1 1 1 1 1 1
1 1 1 1 1 1 1 1 1 1 1 1 1 1 1 1 1 1 1 1 1 1 1 1 1 1 1 1 1 1 1 1 0 0 0 0 1 1 1 1 0 0 0
1 1 1 1 1 0 0 1 0 0 0 0 0 0 -0 0 0 0 0 0 0 0 0 0 0 0 1 1 0 0 1 0 0 0 -0 0 0 0 0 0 0 0 0
0 0 0 0 0 0 0 0 0 -0 -0 -0 -0 -1 -1 -0 -0 -0 -0 -0 -0 -0 -0 -0 -0 -0 0 0 0 0 0 0 0 0 -0 -0 0 0 -0 -0 0 -0 -0
-0 -0 -0 -0 -0 -0 -0 -0 -0 -0 -1 -1 -1 -1 -1 -1 -1 -1 -1 -1 -1 -1 -1 -1 -1 -1 -1 -1 -1 -1 -0 -0 -0 -0 -0 -0 -0 -0 -0 -1 -1 -1 -1
-1 -1 -0 -1 -1 -1 -1 -1 -1 -1 -1 -1 -1 -1 -1 -1 -1 -1 -1 -2 -2 -2 -1 -1 -2 -1 -1 -1 -1 -1 -1 -1 -0 -0 -0 -0 -1 -1 -1 -1 -1 -2 -2
-1 -1 -1 -1 -1 -1 -1 -1 -1 -1 -2 -2 -2 -2 -2 -2 -2 -2 -2 -2 -2 -2 -2 -2 -2 -2 -2 -2 -2 -2 -1 -1 -1 -1 -1 -1 -1 -1 -1 -1 -2 -2 -2
-1 -1 -1 -1 -2 -1 -1 -1 -2 -2 -2 -2 -2 -2 -2 -2 -2 -2 -2 -2 -2 -3 -2 -2 -2 -2 -2 -2 -2 -2 -2 -2 -2 -2 -2 -2 -2 -2 -2 -2 -2 -2 -2
-1 -2 -2 -2 -2 -2 -2 -2 -2 -2 -3 -3 -3 -3 -3 -3 -3 -3 -3 -3 -3 -3 -3 -3 -3 -3 -3 -3 -3 -3 -2 -2 -2 -2 -2 -2 -2 -2 -2 -2 -2 -3 -3
-2 -2 -2 -2 -2 -2 -2 -2 -2 -3 -3 -3 -3 -3 -3 -3 -3 -3 -3 -3 -3 -3 -3 -3 -3 -3 -3 -3 -3 -3 -3 -3 -3 -3 -3 -3 -3 -3 -3 -3 -3 -3 -3
-2 -2 -2 -2 -3 -3 -3 -3 -3 -3 -3 -3 -3 -3 -3 -3 -3 -3 -3 -3 -3 -3 -4 -4 -4 -4 -4 -4 -4 -4 -3 -3 -4 -3 -4 -4 -4 -4 -4 -4 -4 -4 -4
-3 -3 -3 -3 -3 -3 -3 -3 -3 -3 -3 -3 -3 -4 -4 -4 -4 -4 -4 -4 -4 -4 -4 -4 -4 -4 -4 -4 -4 -4 -4 -4 -4 -4 -4 -4 -4 -4 -4 -4 -4 -4 -5
-3 -3 -3 -3 -3 -4 -4 -4 -4 -3 -4 -4 -4 -4 -4 -4 -4 -4 -4 -4 -4 -4 -4 -4 -4 -5 -5 -5 -5 -4 -4 -4 -4 -4 -4 -4 -5 -5 -5 -5 -5 -5 -5
-3 -3 -4 -4 -4 -4 -4 -4 -4 -4 -4 -4 -4 -4 -4 -4 -4 -4 -4 -4 -4 -4 -5 -5 -5 -5 -5 -5 -5 -5 -5 -5 -5 -5 -5 -5 -5 -5 -5 -5 -5 -6 -6
-4 -4 -4 -4 -4 -4 -4 -5 -5 -5 -5 -5 -4 -4 -4 -4 -4 -4 -5 -5 -5 -5 -5 -5 -5 -5 -5 -5 -5 -5 -5 -5 -5 -5 -5 -5 -5 -6 -6 -6 -6 -6 -6
-4 -4 -4 -4 -4 -5 -5 -5 -5 -5 -5 -5 -5 -5 -5 -5 -5 -5 -5 -5 -5 -5 -5 -5 -5 -6 -6 -6 -5 -6 -6 -6 -5 -5 -5 -6 -6 -6 -6 -6 -6 -6 -6
-4 -4 -5 -5 -5 -5 -5 -5 -6 -6 -6 -6 -6 -6 -6 -6 -5 -5 -5 -5 -5 -5 -5 -5 -6 -6 -6 -6 -6 -6 -6 -6 -6 -6 -6 -6 -6 -6 -6 -7 -7 -7 -7
-5 -5 -5 -5 -5 -5 -5 -5 -6 -6 -6 -6 -6 -6 -6 -6 -6 -6 -6 -6 -6 -5 -6 -6 -6 -6 -6 -6 -6 -6 -6 -6 -6 -6 -6 -6 -6 -7 -7 -7 -7 -7 -7
-5 -5 -5 -5 -6 -6 -6 -6 -6 -6 -6 -6 -6 -6 -6 -6 -6 -6 -6 -6 -6 -6 -6 -6 -6 -6 -6 -6 -6 -6 -6 -6 -6 -6 -6 -7 -7 -7 -7 -7 -7 -7 -7
-5 -5 -6 -6 -6 -6 -6 -6 -6 -6 -6 -6 -6 -7 -7 -7 -6 -6 -6 -6 -6 -6 -6 -6 -6 -6 -6 -6 -6 -6 -6 -6 -6 -6 -7 -7 -7 -7 -7 -8 -8 -7 -8
-6 -6 -6 -6 -6 -6 -6 -6 -6 -7 -7 -7 -7 -7 -7 -7 -7 -7 -6 -6 -6 -6 -6 -6 -6 -6 -6 -6 -6 -6 -6 -6 -7 -7 -7 -7 -7 -7 -8 -8 -8 -8 -8
-6 -6 -6 -6 -7 -7 -7 -7 -7 -7 -7 -7 -7 -7 -7 -7 -7 -7 -7 -7 -7 -7 -7 -6 -6 -6 -6 -6 -6 -6 -7 -7 -7 -7 -7 -7 -7 -8 -8 -8 -8 -8 -8
Wind_Speed
3 3 3 3 3 3 3 4 4 4 4 4 4 4 5 5 5 5 5 5 6 6 6 6 6 6 5 5 5 5 6 6 8 7 6 6 7 7 6 7 7 7 7
4 3 4 4 4 4 4 4 4 4 4 4 5 5 5 5 5 6 6 6 7 7 7 7 7 5 6 5 5 6 6 7 7 8 7 6 8 7 6 6 5 6 7
4 4 4 4 5 4 5 5 5 4 4 4 5 5 5 5 5 6 6 7 7 7 7 7 7 7 7 6 7 7 6 6 7 7 7 6 6 5 6 6 6 5 6
4 5 5 5 5 5 5 5 5 5 4 5 5 5 5 5 6 6 6 7 7 7 7 7 7 8 8 8 7 7 7 7 7 7 7 6 6 5 5 5 5 5 5
5 5 6 5 5 5 5 5 5 5 5 5 5 5 5 5 5 6 6 6 7 7 7 8 8 9 10 8 7 7 7 7 6 7 7 6 6 5 5 5 6 6 6
5 6 5 5 5 5 5 5 5 5 5 5 5 6 6 5 6 7 6 6 6 7 7 8 7 9 10 11 11 11 10 9 8 7 7 8 9 7 6 5 5 5 5
6 6 5 5 5 6 5 5 5 5 5 6 6 6 6 7 7 8 8 7 7 7 7 7 7 7 8 8 9 10 11 13 12 10 10 10 9 7 7 7 7 7 7
6 6 5 6 6 6 5 6 6 5 5 6 6 7 7 7 8 9 8 7 7 7 7 8 8 8 8 8 8 9 9 9 10 10 10 10 8 7 8 8 7 6 5
6 6 6 6 6 5 6 6 5 5 6 6 6 7 7 8 8 8 7 6 6 7 7 8 8 9 9 9 9 8 8 8 8 10 10 9 9 8 7 5 4 4 5
6 6 6 6 6 6 6 6 5 6 6 6 7 7 8 8 8 8 7 5 6 6 6 7 9 10 10 10 9 8 9 8 7 6 7 7 6 6 7 6 5 5 4
6 6 6 6 6 7 6 6 6 5 6 6 6 7 7 8 8 9 8 6 6 6 6 6 6 10 11 10 10 8 9 7 6 6 5 4 4 3 4 5 5 5 6
6 6 6 6 6 5 6 6 6 6 6 6 6 6 6 7 8 8 9 9 8 7 7 6 7 10 11 11 9 9 7 6 4 4 4 4 4 3 3 3 3 4 5
6 6 6 6 5 5 5 6 5 5 5 5 5 6 5 5 6 8 9 10 10 8 7 8 9 10 10 9 9 8 6 4 4 4 4 4 4 3 3 2 2 2 3
6 6 5 5 5 4 4 4 5 5 5 5 5 6 5 5 5 5 5 6 8 7 7 7 8 8 7 7 6 5 4 4 4 4 4 3 3 3 3 2 2 2 3
5 5 5 4 4 4 4 4 5 5 6 6 5 6 5 6 6 7 6 5 5 6 5 5 4 4 4 4 4 4 4 3 4 3 3 3 3 3 3 2 2 3 3
4 4 4 3 4 4 4 4 5 6 7 8 8 7 6 8 8 9 9 9 8 7 5 4 5 5 5 4 4 4 4 3 4 3 4 3 3 3 3 3 3 3 4
4 4 3 3 3 4 4 4 4 4 5 6 7 8 8 8 8 8 8 8 7 6 5 4 5 5 5 5 4 4 4 4 3 4 4 3 3 3 3 3 3 3 4
4 4 4 3 3 4 4 4 4 4 4 4 5 7 8 8 8 8 7 6 5 5 4 5 5 5 5 5 4 4 4 3 3 3 4 3 3 3 3 3 3 4 4
4 3 3 3 3 3 3 4 4 4 4 4 4 4 6 7 7 7 5 4 4 5 5 5 5 5 5 4 4 4 4 4 4 3 3 3 3 3 3 3 4 4 4
3 4 4 3 3 3 3 3 3 4 4 4 4 4 4 4 3 4 4 4 4 4 5 5 5 5 4 4 4 3 4 4 3 3 3 3 3 3 3 3 3 3 3
3 3 3 3 3 3 3 3 3 3 4 4 4 4 5 4 4 4 4 4 4 5 5 4 4 4 4 4 3 4 4 3 3 3 3 3 3 3 3 3 3 3 2
2 2 2 3 3 3 3 3 3 4 4 5 4 4 5 4 3 4 4 4 4 4 4 4 4 4 4 4 4 4 4 3 3 3 3 3 3 3 2 2 2 2 2
2 2 2 3 3 4 4 3 3 3 4 4 4 3 3 3 3 4 4 4 4 4 3 3 3 3 3 3 3 3 4 4 3 3 3 3 2 2 2 2 3 2 2
2 3 3 3 3 3 3 3 3 4 4 4 4 4 4 4 4 4 4 4 4 4 3 3 3 4 4 3 3 3 3 3 3 3 3 3 3 2 2 2 2 2 2
2 3 3 3 3 3 3 3 3 4 3 3 3 4 4 4 4 4 4 3 4 3 4 3 3 3 3 3 3 3 3 3 3 3 3 3 3 3 2 2 2 2 2
2 3 3 3 3 3 3 3 4 4 4 3 3 3 4 4 4 4 3 3 3 3 3 3 3 3 3 2 2 3 3 3 3 3 3 3 3 2 2 2 2 2 2
Wind_Direction
250 252 255 256 257 258 261 272 272 267 263 255 254 250 244 239 238 236 237 240 239 241 241 240 244 249 250 250 250 251 252 254 261 274 276 279 279 277 273 266 264 260 254
250 250 251 254 252 254 257 266 267 262 261 257 252 248 248 246 241 239 239 241 241 244 243 243 245 245 248 251 250 251 250 250 258 269 277 278 276 273 273 272 268 261 257
252 249 247 248 249 253 258 265 263 257 259 258 253 249 246 244 244 246 247 244 243 243 244 245 246 245 245 245 247 250 253 255 256 262 271 277 280 274 275 273 267 264 261
254 250 248 250 251 255 258 262 259 255 255 258 257 254 250 249 247 247 247 245 248 248 246 246 245 244 246 248 246 248 253 256 256 259 265 272 276 273 269 268 270 264 262
255 251 252 256 254 255 256 258 255 253 254 254 254 256 254 252 251 254 250 248 252 254 253 250 249 249 251 251 250 249 250 251 254 256 261 269 270 264 260 263 265 272 269
256 255 257 255 251 251 258 256 253 254 255 252 253 255 255 255 262 264 262 256 255 253 255 256 253 248 250 252 251 250 248 247 249 252 258 261 262 263 260 258 260 270 273
256 256 252 250 249 252 252 249 251 254 253 251 253 254 256 259 263 264 263 260 259 258 259 260 259 256 254 252 254 253 252 251 250 251 254 257 259 256 254 252 251 259 266
260 259 255 253 254 254 250 249 252 252 251 253 255 256 260 262 264 264 263 256 257 257 256 260 263 263 257 257 259 258 257 254 252 251 255 258 258 258 252 254 259 268 279
264 263 262 257 254 253 252 253 254 255 254 255 256 257 258 260 261 263 264 257 258 260 259 260 262 264 265 263 258 259 262 266 263 260 265 266 262 255 255 252 249 255 270
265 265 263 258 253 252 253 253 253 252 254 256 256 256 258 259 259 258 258 255 260 264 264 264 262 266 272 267 259 257 260 266 268 267 264 264 258 246 240 236 236 244 263
270 269 265 259 256 255 256 252 251 250 254 255 258 260 259 259 258 254 253 252 258 264 264 264 266 270 271 267 266 260 262 272 268 262 261 262 260 255 248 246 242 240 248
274 270 265 261 258 254 253 251 250 248 250 255 260 265 263 260 258 256 255 255 261 260 263 266 269 273 270 266 263 269 269 268 260 259 261 260 262 264 265 266 270 272 265
273 269 267 263 256 253 248 246 246 244 247 253 258 263 266 264 261 260 259 259 262 261 265 270 274 274 270 262 261 261 256 252 251 253 258 263 265 268 273 278 287 281 287
271 272 270 264 259 254 249 242 241 241 246 252 258 265 268 266 264 261 258 257 260 263 267 267 268 267 262 263 259 250 248 251 249 253 261 265 269 266 266 266 268 270 279
275 273 272 266 263 256 252 250 250 251 250 251 255 258 259 264 267 272 268 260 259 260 266 262 261 265 260 258 257 256 255 254 257 255 251 254 254 255 264 267 254 257 263
275 275 270 267 266 263 262 269 257 260 270 266 269 268 268 273 283 278 274 271 268 264 261 257 254 253 255 255 255 259 258 253 253 252 247 243 244 247 255 258 251 247 250
272 279 277 270 267 266 265 268 282 280 271 267 268 271 274 281 281 279 275 269 260 255 254 255 253 252 254 251 252 257 261 258 254 247 246 243 244 246 247 251 252 252 252
274 274 273 271 270 267 266 268 271 279 288 288 279 276 281 284 281 278 273 266 257 249 251 252 252 253 254 251 250 254 256 255 248 246 246 240 236 237 240 245 247 249 252
274 276 277 276 272 272 272 272 271 273 278 288 297 293 292 291 285 278 261 248 250 253 254 251 250 250 250 252 252 249 246 247 246 242 240 236 231 231 238 245 249 243 245
271 277 281 278 274 274 274 273 274 276 278 281 284 293 305 305 294 288 274 264 256 257 256 253 251 250 249 248 251 251 247 245 242 240 239 236 233 231 233 242 244 241 243
274 276 278 278 275 274 274 275 278 278 277 281 286 289 300 294 287 287 282 273 263 258 255 254 253 251 248 246 243 241 244 247 245 241 236 233 231 231 234 239 241 241 243
271 276 277 276 279 278 280 277 278 279 281 286 294 299 299 294 288 287 288 288 283 273 265 259 255 252 249 247 242 237 236 239 240 235 229 225 225 223 224 230 235 238 236
269 281 284 282 281 285 287 281 279 281 285 288 294 300 300 295 291 291 293 294 291 285 279 267 260 259 260 255 251 244 238 236 235 227 220 219 218 218 218 221 227 233 236
266 272 279 284 285 284 286 287 285 284 285 288 292 295 297 298 296 296 297 299 299 296 293 283 271 267 270 268 261 250 243 239 232 217 211 207 209 211 216 216 225 228 233
261 267 271 274 278 283 286 288 289 291 290 290 292 293 296 297 299 300 301 301 302 302 303 300 289 279 270 264 259 253 240 234 229 214 202 200 200 205 208 211 215 220 229
260 261 264 268 270 274 278 283 287 292 292 293 292 292 293 295 297 300 303 304 306 305 306 306 303 297 292 280 256 244 240 225 213 210 205 191 192 196 197 201 203 209 215
Height
1475 1475 1476 1476 1476 1476 1475 1475 1475 1475 1475 1475 1476 1476 1476 1476 1477 1477 1478 1478 1479 1479 1479 1479 1480 1480 1480 1480 1481 1481 1481 1481 1479 1478 1478 1477 1476 1475 1475 1474 1473 1472 1471
1472 1472 1472 1472 1472 1472 1472 1472 1472 1471 1471 1471 1471 1472 1472 1472 1472 1473 1473 1474 1474 1474 1475 1475 1475 1475 1475 1475 1475 1476 1476 1476 1475 1473 1472 1472 1471 1470 1469 1468 1467 1467 1466
1469 1469 1468 1468 1468 1468 1468 1468 1468 1468 1468 1468 1467 1467 1467 1467 1468 1468 1468 1469 1469 1470 1470 1470 1470 1470 1470 1470 1470 1470 1470 1470 1470 1468 1467 1467 1465 1465 1464 1463 1462 1461 1460
1465 1465 1464 1464 1464 1464 1465 1465 1464 1464 1464 1463 1463 1463 1463 1463 1463 1463 1464 1464 1465 1464 1465 1465 1465 1465 1465 1465 1465 1465 1465 1464 1464 1463 1462 1461 1460 1459 1459 1457 1456 1456 1455
1462 1461 1461 1460 1460 1460 1460 1460 1460 1460 1460 1460 1459 1459 1459 1459 1459 1459 1459 1459 1459 1459 1459 1459 1460 1460 1460 1460 1460 1459 1459 1459 1458 1458 1456 1455 1454 1453 1453 1452 1451 1450 1449
1458 1457 1457 1457 1456 1456 1456 1456 1456 1456 1456 1456 1455 1455 1455 1454 1454 1454 1455 1455 1454 1454 1454 1454 1454 1454 1454 1454 1454 1454 1454 1453 1452 1452 1451 1450 1449 1448 1447 1447 1446 1444 1443
1454 1453 1453 1452 1452 1452 1452 1452 1451 1451 1451 1451 1451 1450 1450 1450 1450 1450 1450 1450 1449 1449 1449 1449 1448 1448 1448 1448 1447 1447 1447 1447 1447 1446 1445 1444 1443 1443 1442 1441 1440 1439 1438
1449 1449 1448 1448 1448 1448 1447 1447 1447 1447 1447 1446 1446 1445 1445 1445 1445 1445 1445 1445 1444 1444 1443 1443 1443 1442 1442 1442 1441 1441 1440 1440 1440 1440 1439 1438 1438 1437 1437 1436 1435 1434 1433
1445 1444 1444 1443 1443 1443 1443 1443 1443 1443 1442 1442 1441 1441 1440 1440 1440 1440 1441 1440 1439 1438 1438 1437 1437 1437 1436 1436 1436 1435 1434 1433 1433 1433 1433 1432 1431 1431 1431 1431 1429 1429 1427
1441 1440 1440 1439 1438 1438 1438 1438 1438 1438 1438 1437 1436 1436 1435 1435 1435 1435 1435 1435 1434 1433 1433 1432 1431 1431 1430 1430 1430 1429 1428 1427 1427 1427 1426 1426 1425 1425 1425 1425 1424 1423 1422
1437 1436 1435 1435 1434 1434 1433 1433 1433 1433 1433 1432 1432 1431 1430 1430 1430 1430 1430 1430 1429 1428 1427 1426 1426 1425 1425 1424 1424 1423 1422 1422 1421 1421 1420 1419 1419 1419 1419 1419 1419 1418 1417
1433 1432 1431 1431 1430 1429 1429 1428 1428 1428 1427 1427 1426 1426 1425 1425 1425 1424 1424 1425 1424 1423 1422 1421 1420 1420 1419 1419 1418 1417 1417 1417 1416 1415 1415 1414 1414 1413 1413 1413 1413 1413 1412
1429 1428 1427 1427 1426 1425 1425 1424 1423 1423 1423 1422 1421 1421 1420 1420 1419 1419 1419 1419 1418 1418 1417 1416 1415 1414 1414 1413 1412 1412 1411 1411 1410 1410 1409 1409 1409 1409 1408 1408 1407 1407 1406
1426 1424 1423 1422 1422 1421 1421 1420 1419 1419 1418 1418 1417 1416 1415 1415 1414 1414 1413 1413 1413 1412 1412 1411 1410 1409 1408 1408 1407 1406 1406 1405 1405 1404 1404 1404 1404 1403 1403 1402 1402 1401 1401
1422 1421 1420 1419 1418 1417 1417 1416 1415 1415 1414 1414 1413 1412 1411 1410 1410 1410 1409 1408 1408 1407 1407 1405 1404 1403 1403 1402 1401 1401 1400 1400 1400 1400 1399 1399 1398 1398 1398 1398 1397 1397 1396
1418 1417 1416 1416 1415 1414 1413 1412 1411 1411 1410 1410 1409 1409 1407 1407 1406 1405 1405 1404 1403 1403 1402 1400 1399 1399 1398 1397 1396 1396 1395 1395 1395 1395 1395 1394 1394 1394 1393 1393 1393 1392 1391
1416 1415 1413 1412 1411 1410 1409 1408 1407 1407 1407 1406 1405 1404 1403 1402 1401 1401 1400 1399 1399 1398 1397 1395 1394 1394 1393 1393 1392 1391 1391 1390 1390 1390 1390 1390 1389 1389 1389 1388 1388 1388 1387
1413 1412 1411 1409 1408 1407 1406 1405 1404 1403 1402 1401 1401 1400 1399 1398 1397 1396 1395 1394 1393 1392 1391 1391 1390 1389 1389 1388 1388 1387 1386 1386 1386 1385 1385 1385 1385 1385 1384 1384 1384 1384 1383
1410 1409 1408 1407 1405 1404 1403 1402 1401 1400 1399 1397 1396 1396 1395 1393 1392 1391 1390 1389 1388 1387 1387 1386 1386 1385 1384 1384 1383 1382 1382 1382 1381 1381 1381 1381 1380 1380 1380 1380 1380 1380 1380
1408 1407 1405 1404 1403 1402 1400 1399 1398 1397 1396 1394 1393 1392 1390 1389 1388 1387 1386 1385 1384 1383 1383 1382 1381 1381 1380 1379 1378 1378 1378 1377 1377 1377 1377 1377 1377 1376 1376 1376 1376 1376 1376
1405 1404 1403 1401 1400 1399 1398 1396 1395 1394 1393 1392 1390 1389 1387 1386 1384 1383 1382 1381 1380 1379 1378 1378 1377 1376 1376 1375 1374 1374 1374 1373 1373 1373 1372 1372 1373 1373 1373 1373 1373 1373 1373
1402 1401 1400 1399 1397 1396 1395 1394 1392 1391 1390 1388 1387 1386 1384 1383 1381 1380 1379 1377 1376 1375 1375 1374 1373 1372 1372 1371 1371 1370 1370 1369 1369 1369 1369 1369 1369 1369 1369 1370 1370 1370 1371
1400 1399 1397 1396 1395 1394 1392 1391 1390 1388 1387 1386 1384 1383 1381 1380 1378 1377 1376 1374 1373 1372 1371 1370 1369 1369 1368 1368 1367 1367 1366 1366 1366 1366 1366 1366 1366 1366 1367 1367 1367 1368 1368
1397 1396 1395 1394 1392 1391 1390 1389 1387 1386 1385 1383 1382 1380 1379 1378 1376 1375 1373 1372 1370 1369 1368 1367 1366 1366 1365 1365 1364 1364 1364 1363 1363 1363 1363 1363 1364 1364 1364 1365 1365 1365 1366
1395 1394 1393 1391 1390 1389 1388 1386 1385 1384 1382 1381 1380 1379 1377 1376 1374 1373 1371 1370 1368 1367 1366 1365 1364 1363 1363 1362 1362 1361 1361 1361 1361 1361 1361 1362 1362 1362 1363 1363 1363 1363 1364
1392 1391 1390 1389 1388 1387 1385 1384 1383 1381 1380 1379 1378 1377 1375 1374 1373 1371 1369 1368 1367 1365 1364 1363 1362 1361 1361 1360 1360 1359 1359 1359 1359 1359 1360 1360 1360 1361 1361 1361 1362 1362 1362